Aberdeen, SD

2:51 AM CDT on April 22, 2018 (GMT -0500)
Aberdeen Regional

Weather History for KABR - July, 2013

Change the Weather History Date:

Wednesday, July 31, 2013

  Actual Average Record
Temperature  
Mean Temperature 67 °F 72 °F  
Max Temperature 81 °F 84 °F 106 °F (1987)
Min Temperature 53 °F 59 °F 42 °F (1903)
Degree Days  
Heating Degree Days 0 0  
Month to date heating degree days 32 8  
Since 1 June heating degree days 113 90  
Since 1 July heating degree days 32 14  
Cooling Degree Days 2 7  
Month to date cooling degree days 194 208  
Year to date cooling degree days 311 323  
Since 1 June cooling degree days 290 300  
Growing Degree Days 18 (Base 50)    
Moisture  
Dew Point 55 °F    
Average Humidity 65    
Maximum Humidity 93    
Minimum Humidity 37    
Precipitation  
Precipitation 0.07 in 0.08 in 0.97 in (1917)
Month to date precipitation 2.70 3.02  
Year to date precipitation 13.42 13.86  
Sea Level Pressure  
Sea Level Pressure 30.11 in    
Wind  
Wind Speed 5 mph (NW)    
Max Wind Speed 15 mph    
Max Gust Speed 21 mph    
Visibility 10 miles    
Events Rain , Thunderstorm    
T = Trace of Precipitation, MM = Missing Value Source: NWS Daily Summary

Daily Weather History Graph

Daily Weather History Graph

Search for Another Location

Airport or City:

Astronomy

Jul. 31, 2013 Rise Set
Actual Time 6:16 AM CDT 9:02 PM CDT
Civil Twilight 5:42 AM CDT 9:36 PM CDT
Nautical Twilight 4:59 AM CDT 10:19 PM CDT
Astronomical Twilight 4:08 AM CDT 11:09 PM CDT
Moon 1:13 AM CDT (7/31) 4:20 PM CDT (7/31)
Length of Visible Light 15h 53m
Length of Day
14h 45m
Waning Crescent, 31% of the Moon is Illuminated
Jul 31
Waning Crescent
Aug 6
New
Aug 14
First Quarter
Aug 20
Full
Aug 28
Last Quarter

Hourly Weather History & Observations

Time (CDT) Temp. Dew Point Humidity Pressure Visibility Wind Dir Wind Speed Gust Speed Precip Events Conditions
12:53 AM 60.1 °F 57.0 °F 90% 30.11 in 10.0 mi WNW 5.8 mph - N/A   Clear
2:53 AM 57.0 °F 55.0 °F 93% 30.11 in 10.0 mi Calm Calm - N/A   Clear
3:53 AM 57.0 °F 55.9 °F 96% 30.11 in 10.0 mi Calm Calm - N/A   Scattered Clouds
4:06 AM 57.2 °F 55.4 °F 94% 30.12 in 10.0 mi WSW 3.5 mph - N/A Thunderstorm Mostly Cloudy
4:24 AM 57.2 °F 55.4 °F 94% 30.12 in 10.0 mi NW 3.5 mph - N/A   Overcast
4:53 AM 60.1 °F 57.0 °F 90% 30.13 in 10.0 mi NNW 5.8 mph - 0.00 in Rain Light Rain
5:53 AM 59.0 °F 57.9 °F 96% 30.12 in 9.0 mi Calm Calm - 0.01 in Rain Light Rain
6:53 AM 60.1 °F 57.9 °F 93% 30.17 in 10.0 mi West 8.1 mph - 0.01 in   Overcast
7:53 AM 60.1 °F 57.9 °F 93% 30.14 in 10.0 mi SSE 4.6 mph - 0.05 in   Scattered Clouds
8:53 AM 63.0 °F 59.0 °F 87% 30.14 in 10.0 mi NW 3.5 mph - N/A   Clear
9:53 AM 69.1 °F 57.9 °F 68% 30.13 in 10.0 mi NW 4.6 mph - N/A   Partly Cloudy
10:53 AM 71.1 °F 57.9 °F 63% 30.14 in 10.0 mi NNW 4.6 mph - N/A   Clear
11:53 AM 73.9 °F 57.0 °F 55% 30.14 in 10.0 mi WNW 5.8 mph - N/A   Clear
12:53 PM 75.9 °F 57.0 °F 52% 30.13 in 10.0 mi West 8.1 mph - N/A   Clear
1:53 PM 77.0 °F 55.0 °F 47% 30.12 in 10.0 mi Variable 6.9 mph - N/A   Scattered Clouds
2:53 PM 79.0 °F 51.1 °F 38% 30.11 in 10.0 mi NNW 10.4 mph 18.4 mph N/A   Partly Cloudy
3:53 PM 79.0 °F 51.1 °F 38% 30.10 in 10.0 mi NNW 8.1 mph - N/A   Scattered Clouds
4:53 PM 79.0 °F 51.1 °F 38% 30.08 in 10.0 mi NNW 6.9 mph - N/A   Clear
5:53 PM 79.0 °F 50.0 °F 36% 30.06 in 10.0 mi NNW 11.5 mph - N/A   Clear
6:53 PM 78.1 °F 51.1 °F 39% 30.05 in 10.0 mi North 10.4 mph - N/A   Clear
7:53 PM 75.0 °F 53.1 °F 46% 30.06 in 10.0 mi North 5.8 mph - N/A   Clear
8:53 PM 69.1 °F 55.9 °F 63% 30.06 in 10.0 mi Calm Calm - N/A   Clear
9:53 PM 60.1 °F 55.0 °F 83% 30.06 in 10.0 mi SE 4.6 mph - N/A   Clear
10:53 PM 59.0 °F 54.0 °F 83% 30.06 in 10.0 mi Calm Calm - N/A   Clear
11:53 PM 55.9 °F 53.1 °F 90% 30.06 in 10.0 mi SSE 3.5 mph - N/A   Clear